7 * 24
多渠道服务支持
TIANMU-1 06(天目一号06星,又名重庆金凤城市中心号),是中国于2023年3月22日在酒泉卫星发射中心,通过快舟一号甲运载火箭成功发射的北斗/GNSS遥感探测卫星,属于天目一号气象星座。卫星由重庆企业研制,主要用于获取全球大气环境要素信息,可支持实现全球全天候海洋、大气层、电离层的立体化一体化探测。
中国
(CN)
| 数据来源 | 国际轨道数据 |
| 星历时间: | 2026-09-11T07:08:36+0800 10小时前 查看轨道信息 |
| 半长轴: | 6794.68km |
| 偏心率: | 0.0003445 |
| 轨道倾角: | 97.524° |
| 近地点辐角 | 135.096° |
| 升交点赤经 | 71.774° |
| 平近点角 | 225.057° |
| 近地点: | 414.202km |
| 远地点: | 418.884km |
| 周期: | 92.899分钟 |
| 每日圈数: | 15.500627 |